Hearne, TX

1:55 AM CST on November 12, 2019 (GMT -0600)
Hearne

Weather History for KLHB - September, 2019

Change the Weather History Date:

Friday, September 27, 2019

  Actual Average (KCLL) Record (KCLL)
Temperature  
Mean Temperature 83 °F -  
Max Temperature 95 °F 86 °F 103 °F (2005)
Min Temperature 71 °F 62 °F 42 °F (1942)
Cooling Degree Days 18    
Growing Degree Days 33 (Base 50)    
Moisture  
Dew Point 72 °F    
Average Humidity 75    
Maximum Humidity 97    
Minimum Humidity 44    
Precipitation  
Precipitation 0.00 in - - ()
Sea Level Pressure  
Sea Level Pressure 29.86 in    
Wind  
Wind Speed 5 mph ()    
Max Wind Speed 16 mph    
Max Gust Speed 23 mph    
Visibility 9.3 miles    
Events      
Averages and records for this station are not official NWS values.
T = Trace of Precipitation, MM = Missing Value Source: Averaged Metar Reports

Daily Weather History Graph

Daily Weather History Graph

Search for Another Location

Airport or City:

Astronomy

Sep. 27, 2019 Rise Set
Actual Time 7:17 AM CDT 7:16 PM CDT
Civil Twilight 6:53 AM CDT 7:40 PM CDT
Nautical Twilight 6:25 AM CDT 8:08 PM CDT
Astronomical Twilight 5:57 AM CDT 8:37 PM CDT
Moon 5:51 AM CDT (9/27) 7:00 PM CDT (9/27)
Length of Visible Light 12h 47m
Length of Day
11h 59m
Waning Crescent, 2% of the Moon is Illuminated
Sep 27
Waning Crescent
Sep 28
New
Oct 5
First Quarter
Oct 13
Full
Oct 21
Last Quarter

Hourly Weather History & Observations

Time (CDT) Temp. Heat Index Dew Point Humidity Pressure Visibility Wind Dir Wind Speed Gust Speed Precip Events Conditions
12:35 AM 77.0 °F - 69.1 °F 76% 29.89 in 10.0 mi SE 6.9 mph - N/A   Clear
12:55 AM 76.3 °F - 69.3 °F 79% 29.89 in 10.0 mi SSE 5.8 mph - N/A   Clear
1:15 AM 75.7 °F - 69.8 °F 82% 29.89 in 10.0 mi SE 6.9 mph - N/A   Clear
1:35 AM 75.2 °F - 70.0 °F 84% 29.89 in 10.0 mi SE 4.6 mph - N/A   Clear
1:55 AM 74.3 °F - 70.0 °F 86% 29.89 in 10.0 mi Calm Calm - N/A   Clear
2:15 AM 73.9 °F - 70.2 °F 88% 29.89 in 10.0 mi SE 4.6 mph - N/A   Clear
2:35 AM 73.6 °F - 70.3 °F 90% 29.89 in 10.0 mi SE 4.6 mph - N/A   Clear
2:55 AM 73.4 °F - 70.3 °F 90% 29.88 in 10.0 mi SE 4.6 mph - N/A   Clear
3:15 AM 73.0 °F - 70.5 °F 92% 29.88 in 10.0 mi SE 3.5 mph - N/A   Clear
3:35 AM 72.7 °F - 70.7 °F 93% 29.87 in 10.0 mi Calm Calm - N/A   Clear
3:55 AM 72.5 °F - 70.7 °F 94% 29.87 in 10.0 mi Calm Calm - N/A   Clear
4:15 AM 72.1 °F - 70.3 °F 94% 29.88 in 10.0 mi Calm Calm - N/A   Clear
4:35 AM 71.6 °F - 70.2 °F 95% 29.88 in 7.0 mi Calm Calm - N/A   Clear
4:55 AM 71.2 °F - 69.8 °F 95% 29.88 in 7.0 mi Calm Calm - N/A   Scattered Clouds
5:15 AM 71.4 °F - 70.3 °F 96% 29.88 in 7.0 mi Calm Calm - N/A   Mostly Cloudy
5:35 AM 71.6 °F - 70.3 °F 96% 29.88 in 7.0 mi Calm Calm - N/A   Mostly Cloudy
5:55 AM 72.5 °F - 71.6 °F 97% 29.88 in 7.0 mi Calm Calm - N/A   Overcast
6:35 AM 73.6 °F - 72.5 °F 96% 29.88 in 7.0 mi Calm Calm - N/A   Overcast
6:55 AM 73.8 °F - 72.5 °F 96% 29.89 in 7.0 mi Calm Calm - N/A   Overcast
7:15 AM 73.9 °F - 72.7 °F 96% 29.89 in 7.0 mi Calm Calm - N/A   Overcast
7:35 AM 74.3 °F - 72.9 °F 95% 29.89 in 7.0 mi Calm Calm - N/A   Overcast
7:55 AM 74.3 °F - 72.9 °F 95% 29.89 in 2.0 mi Calm Calm - N/A   Overcast
8:15 AM 74.8 °F - 73.4 °F 95% 29.89 in 10.0 mi Calm Calm - N/A   Overcast
8:35 AM 75.7 °F - 73.8 °F 94% 29.90 in 7.0 mi Calm Calm - N/A   Overcast
8:55 AM 76.1 °F - 73.8 °F 92% 29.90 in 5.0 mi SE 3.5 mph - N/A   Overcast
9:15 AM 77.0 °F - 73.9 °F 90% 29.91 in 7.0 mi Calm Calm - N/A   Overcast
9:35 AM 78.3 °F - 74.3 °F 88% 29.91 in 10.0 mi South 4.6 mph - N/A   Overcast
9:55 AM 79.3 °F - 74.5 °F 85% 29.92 in 10.0 mi SE 5.8 mph - N/A   Overcast
10:15 AM 81.1 °F 87.0 °F 74.7 °F 81% 29.92 in 10.0 mi SSE 6.9 mph - N/A   Overcast
10:35 AM 84.6 °F 93.2 °F 75.4 °F 74% 29.91 in 10.0 mi SE 8.1 mph - N/A   Overcast
10:55 AM 83.5 °F 90.6 °F 74.3 °F 74% 29.91 in 10.0 mi South 6.9 mph - N/A   Overcast
11:15 AM 85.6 °F 93.8 °F 74.5 °F 69% 29.91 in 10.0 mi SSW 5.8 mph - N/A   Mostly Cloudy
11:35 AM 88.0 °F 96.0 °F 73.6 °F 62% 29.90 in 10.0 mi SSE 10.4 mph - N/A   Mostly Cloudy
11:55 AM 86.5 °F 94.2 °F 73.4 °F 65% 29.90 in 10.0 mi South 4.6 mph - N/A   Mostly Cloudy
12:15 PM 88.9 °F 96.6 °F 73.0 °F 59% 29.89 in 10.0 mi ESE 6.9 mph - N/A   Mostly Cloudy
12:35 PM 89.4 °F 96.8 °F 72.3 °F 57% 29.88 in 10.0 mi SE 5.8 mph - N/A   Scattered Clouds
12:55 PM 91.4 °F 98.4 °F 71.8 °F 52% 29.87 in 10.0 mi SSE 8.1 mph - N/A   Scattered Clouds
1:15 PM 91.8 °F 99.1 °F 71.8 °F 52% 29.86 in 10.0 mi SE 6.9 mph - N/A   Clear
1:35 PM 92.7 °F 99.4 °F 71.2 °F 49% 29.85 in 10.0 mi ESE 8.1 mph - N/A   Clear
1:55 PM 94.8 °F 100.9 °F 70.0 °F 44% 29.83 in 10.0 mi ESE 8.1 mph - N/A   Scattered Clouds
2:15 PM 93.6 °F 99.5 °F 70.2 °F 46% 29.82 in 10.0 mi SE 9.2 mph - N/A   Mostly Cloudy
2:35 PM 93.9 °F 100.3 °F 70.2 °F 46% 29.81 in 10.0 mi SE 10.4 mph - N/A   Overcast
2:55 PM 92.7 °F 98.8 °F 70.3 °F 48% 29.80 in 10.0 mi SSE 9.2 mph 18.4 mph N/A   Mostly Cloudy
3:15 PM 95.2 °F 102.9 °F 71.4 °F 46% 29.80 in 10.0 mi SE 15.0 mph 19.6 mph N/A   Mostly Cloudy
3:35 PM 92.7 °F 99.9 °F 71.8 °F 50% 29.79 in 10.0 mi SE 16.1 mph - N/A   Scattered Clouds
3:55 PM 91.9 °F 101.3 °F 73.6 °F 55% 29.79 in 10.0 mi SE 15.0 mph 23.0 mph N/A   Scattered Clouds
4:15 PM 90.7 °F 99.6 °F 73.6 °F 57% 29.79 in 10.0 mi ESE 16.1 mph 21.9 mph N/A   Scattered Clouds
4:35 PM 90.1 °F 98.3 °F 73.0 °F 57% 29.79 in 10.0 mi SE 12.7 mph - N/A   Clear
4:55 PM 90.9 °F 100.0 °F 73.6 °F 57% 29.78 in 10.0 mi SE 15.0 mph 18.4 mph N/A   Scattered Clouds
5:15 PM 90.3 °F 97.7 °F 72.3 °F 55% 29.78 in 10.0 mi SE 13.8 mph 20.7 mph N/A   Mostly Cloudy
5:35 PM 89.6 °F 97.2 °F 72.7 °F 57% 29.77 in 10.0 mi SE 12.7 mph 19.6 mph N/A   Scattered Clouds
5:55 PM 90.1 °F 98.3 °F 72.9 °F 57% 29.78 in 10.0 mi SE 11.5 mph 17.3 mph N/A   Scattered Clouds
6:15 PM 88.0 °F 96.5 °F 74.1 °F 63% 29.79 in 10.0 mi SE 8.1 mph 16.1 mph N/A   Clear
6:35 PM 87.4 °F 95.8 °F 73.8 °F 64% 29.79 in 10.0 mi SE 10.4 mph 16.1 mph N/A   Clear
6:55 PM 86.7 °F 94.1 °F 73.4 °F 64% 29.79 in 10.0 mi SE 9.2 mph - N/A   Clear
7:15 PM 85.8 °F 93.0 °F 73.4 °F 66% 29.79 in 10.0 mi SE 10.4 mph 19.6 mph N/A   Clear
7:35 PM 84.7 °F 90.4 °F 72.0 °F 65% 29.80 in 10.0 mi SE 12.7 mph - N/A   Clear
7:55 PM 83.3 °F 88.4 °F 71.6 °F 68% 29.81 in 10.0 mi SE 6.9 mph - N/A   Clear
8:15 PM 82.8 °F 88.4 °F 72.9 °F 72% 29.82 in 10.0 mi SE 5.8 mph - N/A   Clear
8:35 PM 82.6 °F 88.6 °F 73.6 °F 74% 29.82 in 10.0 mi SE 8.1 mph - N/A   Clear
8:55 PM 82.4 °F 88.4 °F 73.9 °F 75% 29.83 in 10.0 mi ESE 5.8 mph - N/A   Clear
9:15 PM 81.7 °F 87.6 °F 74.3 °F 78% 29.83 in 10.0 mi ESE 8.1 mph - N/A   Clear
9:35 PM 81.1 °F 86.8 °F 74.5 °F 80% 29.84 in 10.0 mi SE 10.4 mph 18.4 mph N/A   Clear
9:55 PM 81.1 °F 87.0 °F 74.8 °F 81% 29.84 in 10.0 mi SE 9.2 mph - N/A   Clear
10:15 PM 81.0 °F 86.9 °F 75.2 °F 83% 29.85 in 10.0 mi SE 9.2 mph - N/A   Clear
10:35 PM 80.6 °F 86.0 °F 74.8 °F 83% 29.85 in 10.0 mi SE 10.4 mph - N/A   Clear
10:55 PM 80.2 °F 85.2 °F 74.7 °F 83% 29.85 in 10.0 mi SE 9.2 mph - N/A   Clear
11:15 PM 79.9 °F - 74.7 °F 84% 29.85 in 10.0 mi SE 9.2 mph - N/A   Clear
11:35 PM 79.7 °F - 74.5 °F 84% 29.86 in 10.0 mi SE 9.2 mph - N/A   Clear
11:55 PM 79.2 °F - 74.5 °F 86% 29.86 in 10.0 mi SE 8.1 mph - N/A   Clear